Weather History for Honolulu, HI

Change the Weather History Date:

Monday, January 7, 2013

  Actual Average Record
Temperature  
Mean Temperature 76 °F 73 °F  
Max Temperature 82 °F 80 °F 85 °F (1987)
Min Temperature 70 °F 67 °F 56 °F (1971)
Degree Days  
Heating Degree Days 0 0  
Month to date heating degree days 0 0  
Since 1 July heating degree days 0 0  
Cooling Degree Days 11 8  
Month to date cooling degree days 20 58  
Year to date cooling degree days 20 58  
Growing Degree Days 22 (Base 50)    
Moisture  
Dew Point 64 °F    
Average Humidity 69    
Maximum Humidity 84    
Minimum Humidity 54    
Precipitation  
Precipitation 0.01 in 0.09 in 6.40 in (1963)
Month to date precipitation 0.15 0.65  
Year to date precipitation 0.15 0.65  
Snow  
Snow 0.00 in - - ()
Month to date snowfall 0.0  
Since 1 July snowfall 0.0  
Snow Depth 0.00 in    
Sea Level Pressure  
Sea Level Pressure 30.03 in    
Wind  
Wind Speed 14 mph (ENE)    
Max Wind Speed 24 mph    
Max Gust Speed 31 mph    
Visibility 10 miles    
Events Rain    
T = Trace of Precipitation, MM = Missing Value Source: NWS Daily Summary

Daily Weather History Graph

Daily Weather History Graph

Search for Another Location

Airport:

Trip Planner

Search our weather history database for the weather conditions in past years. The results will help you decide how hot, cold, wet, or windy it might be!

Date:

Astronomy

Jan. 07, 2013 Rise Set
Actual Time 7:11 AM HST 6:05 PM HST
Civil Twilight 6:47 AM HST 6:29 PM HST
Nautical Twilight 6:19 AM HST 6:57 PM HST
Astronomical Twilight 5:52 AM HST 7:24 PM HST
Moon 2:55 AM HST (1/7) 2:20 PM HST (1/7)
Length of Visible Light 11h 42m
Length of Day
10h 54m
Waning Crescent, 21% of the Moon is Illuminated
Jan 7
Waning Crescent
Jan 11
New
Jan 18
First Quarter
Jan 26
Full
Feb 3
Last Quarter

Hourly Weather History & Observations

Time (HST) Temp. Heat Index Dew Point Humidity Pressure Visibility Wind Dir Wind Speed Gust Speed Precip Events Conditions
12:53 AM 73.9 °F - 64.0 °F 71% 30.04 in 10.0 mi ENE 11.5 mph 21.9 mph N/A   Partly Cloudy
1:53 AM 73.9 °F - 64.0 °F 71% 30.03 in 10.0 mi ENE 10.4 mph - N/A   Scattered Clouds
2:53 AM 73.0 °F - 64.0 °F 73% 30.03 in 10.0 mi ENE 10.4 mph 19.6 mph N/A   Scattered Clouds
3:53 AM 72.0 °F - 66.0 °F 81% 30.03 in 10.0 mi East 5.8 mph - 0.00 in Rain Light Rain
4:53 AM 71.1 °F - 66.0 °F 84% 30.04 in 10.0 mi East 6.9 mph - 0.00 in Rain Light Rain
5:53 AM 71.1 °F - 66.0 °F 84% 30.04 in 10.0 mi ENE 12.7 mph - 0.01 in Rain Light Rain
6:53 AM 73.0 °F - 64.9 °F 76% 30.06 in 10.0 mi NE 6.9 mph - 0.00 in   Mostly Cloudy
7:53 AM 73.0 °F - 64.9 °F 76% 30.07 in 10.0 mi ENE 12.7 mph - N/A   Scattered Clouds
8:53 AM 75.0 °F - 64.9 °F 71% 30.08 in 10.0 mi NE 16.1 mph 27.6 mph N/A   Scattered Clouds
9:53 AM 75.9 °F - 66.0 °F 71% 30.09 in 10.0 mi ENE 19.6 mph 28.8 mph N/A   Scattered Clouds
10:53 AM 77.0 °F - 66.0 °F 69% 30.09 in 10.0 mi ENE 15.0 mph 23.0 mph N/A   Scattered Clouds
11:53 AM 79.0 °F - 64.9 °F 62% 30.05 in 10.0 mi ENE 15.0 mph 25.3 mph N/A   Scattered Clouds
12:53 PM 80.1 °F 81.9 °F 64.9 °F 60% 30.02 in 10.0 mi NE 18.4 mph 27.6 mph N/A   Scattered Clouds
1:53 PM 80.1 °F 81.7 °F 64.0 °F 58% 29.99 in 10.0 mi NE 16.1 mph 26.5 mph N/A   Scattered Clouds
2:53 PM 80.1 °F 81.5 °F 63.0 °F 56% 29.98 in 10.0 mi NE 18.4 mph 25.3 mph 0.00 in   Scattered Clouds
3:53 PM 79.0 °F - 64.0 °F 60% 29.98 in 10.0 mi NE 16.1 mph 28.8 mph N/A   Scattered Clouds
4:53 PM 78.1 °F - 62.1 °F 58% 29.98 in 10.0 mi NE 15.0 mph 21.9 mph N/A   Scattered Clouds
5:53 PM 75.9 °F - 62.1 °F 62% 30.00 in 10.0 mi ENE 15.0 mph 21.9 mph N/A   Scattered Clouds
6:53 PM 75.0 °F - 63.0 °F 66% 30.01 in 10.0 mi ENE 15.0 mph - N/A   Scattered Clouds
7:53 PM 73.9 °F - 63.0 °F 68% 30.02 in 10.0 mi NE 11.5 mph 24.2 mph N/A   Scattered Clouds
8:53 PM 73.9 °F - 63.0 °F 68% 30.03 in 10.0 mi ENE 18.4 mph 26.5 mph N/A   Scattered Clouds
9:53 PM 73.9 °F - 63.0 °F 68% 30.04 in 10.0 mi ENE 17.3 mph 24.2 mph N/A   Partly Cloudy
10:53 PM 73.0 °F - 63.0 °F 71% 30.04 in 10.0 mi NE 15.0 mph - N/A   Partly Cloudy
11:53 PM 73.0 °F - 63.0 °F 71% 30.01 in 10.0 mi ENE 10.4 mph - N/A   Partly Cloudy